979  
FPUS82 KCHS 260827  
OPUCHS  
 
TEST   
..KCHS/KSAV GATEWAY OBSERVATIONS
 
TEST  
NATIONAL WEATHER SERVICE CHARLESTON SC  
400 AM EDT SUN MAR 26 2017  
 
NOTE: "FAIR" INDICATES FEW OR NO CLOUDS BELOW 12,000 FEET WITH NO  
SIGNIFICANT WEATHER AND/OR OBSTRUCTIONS TO VISIBILITY.  
 
SCZ050-WAZ558-NCZ071-TXZ119-213-PAZ071-DCZ001-FLZ074-172-MI076-  
NYZ176-178-MAZ016-IL014-TNZ027-NJZ106-GAZ044-MD014-260900-  
   
..GATEWAY OBSERVATIONS FOR CHARLESTON INTERNATIONAL
 
 
 
CITY SKY/WX TMP DP RH WIND PRES REMARKS  
CHAS AIRPORT MOCLDY 61 56 83 SE5 30.17F  
SEATTLE CLOUDY 44 39 82 S5 30.00F  
CHARLOTTE PTCLDY 55 51 86 S6 30.18F  
DALLAS DFW CLEAR 57 47 69 E7 29.87F  
DALLAS LOVE PTCLDY 57 46 66 E7 29.90S  
PHILLADELPHIA CLOUDY 44 38 79 NE10 30.36R  
WASH NATIONAL CLOUDY 51 43 74 E13 30.25S  
BALTIMORE CLOUDY 47 42 83 NE14 30.28S  
MIAMI CLOUDY 70 66 87 N5 30.06F  
DETROIT CLOUDY 40 36 86 E10 30.08F WCI 33  
NEWARK LGT RAIN 40 36 86 NE12 30.41S WCI 33  
LAGUARDIA LGT RAIN 41 35 79 NE13 30.41F  
J F K LGT RAIN 41 38 89 NE9 30.42F  
BOSTON LOGAN CLOUDY 31 25 78 N9 30.47R WCI 23  
FT. LAUDERDALE MOCLDY 70 65 84 SE8 30.06F  
CHICAGO O'HARE CLOUDY 47 45 93 NE6 29.89F FOG  
CHICAGO MIDWAY CLOUDY 48 47 96 VRB7 29.90F FOG  
HOUSTON BUSH CLOUDY 67 65 93 CALM 29.92F FOG  
HOUSTON HOBBY MOCLDY 69 67 93 S3 29.92F  
NASHVILLE CLOUDY 58 56 93 SE7 29.97F  
ATLANTA LGT RAIN 60 59 96 SE7 30.10F  
 

 
 
GAZ044-118-TXZ119-213-NCZ071-DCZ001-MDZ014-506-PAZ021-071-NJZ106-  
NYZ176-178-MAZ106-OHZ011-021-055-MIZ076-KYZ091-ILZ014-INZ047-  
MNZ060-ONZ431-260900-  
   
..GATEWAY OBSERVATIONS FOR SAVANNAH INTERNATIONAL
 
 
 
CITY SKY/WX TMP DP RH WIND PRES REMARKS  
SAVANNAH ARPT PTCLDY 57 54 89 CALM 30.18S  
ATLANTA LGT RAIN 60 59 96 SE7 30.10F  
CHARLOTTE PTCLDY 55 51 86 S6 30.18F  
DALLAS DFW CLEAR 57 47 69 E7 29.87F  
HOUSTON BUSH CLOUDY 67 65 93 CALM 29.92F FOG  
WASH NATIONAL CLOUDY 51 43 74 E13 30.25S  
WASH DULLES CLOUDY 51 43 74 NE10 30.24R  
BALTIMORE CLOUDY 47 42 83 NE14 30.28S  
PHILADELPHIA CLOUDY 44 38 79 NE10 30.36R  
NEWARK LGT RAIN 40 36 86 NE12 30.41S WCI 33  
LAGUARDIA LGT RAIN 41 35 79 NE13 30.41F  
J F K LGT RAIN 41 38 89 NE9 30.42F  
BOSTON CLOUDY 31 25 78 N9 30.47R WCI 23  
PITTSBURG CLOUDY 59 51 75 SE8 30.09S  
AKRON PTCLDY 56 49 77 E6 30.05F  
CLEVELAND CLOUDY 45 38 76 N5 30.06F  
CINCINNATI CLOUDY 60 56 86 SW8 29.99F  
COLUMBUS MOCLDY 60 50 71 S7 29.98S  
DETROIT CLOUDY 40 36 86 E10 30.08F WCI 33  
CHICAGO O'HARE CLOUDY 47 45 93 NE6 29.89F FOG  
MINNEAPOLIS DRIZZLE 37 34 89 E7 29.98F WCI 32  
INDIANAPOLIS LGT RAIN 58 56 93 SE10 29.93F  
TORONTO CANADA CLOUDY 34 32 93 E9G20 30.28F WCI 26  
 

 
 
 
CLICK HERE TO GO TO PREVIOUS BULLETINS.

The Nexlab SC Page
The Nexlab GA Page Main Text Page